Location: Palomar Mountain Lodge
(33.3110°N, 116.8495°W)
Time: 14:57:28
(UTC-07:00)

Cosmos 1461 - Pass Details

Date: 19 May 2017
Orbit: 525 x 648 km, 65.0° (Epoch: 24 May)

Event Time Altitude Azimuth Distance (km) Brightness Sun altitude
Rises 20:43:51 0° 326° (NW) 2,761 7.8 -11.8°
Reaches altitude 10° 20:46:04 10° 321° (NW) 1,881 6.8 -12.2°
Maximum altitude 20:50:11 53° 245° (WSW) 726 3.6 -12.9°
Enters shadow 20:54:10 12° 169° (S) 1,830 5.1 -13.6°
